WA5KWK Weather Reports


Display with metric or nautical units.
time (UTC)temp
F
wind
direction
speed
MPH
gust
MPH
rain 1hr
in
rain 24hr
in
rain mn
in
humidity
%
barometer
mb
20260904231505 69 216 6.0 13.0 0.00 0.01 0.01 42 1014.2
20260904231004 70 191 6.0 12.0 0.00 0.01 0.01 42 1014.1
20260904230505 70 208 6.0 13.0 0.00 0.01 0.01 42 1014.2
20260904230005 70 198 5.0 9.0 0.00 0.01 0.01 44 1014.2
20260904225505 69 198 6.0 10.0 0.00 0.01 0.01 44 1014.2
20260904225005 68 220 7.0 12.0 0.00 0.01 0.01 46 1014.1
20260904224505 68 215 6.0 12.0 0.00 0.01 0.01 45 1014.2
20260904224005 69 171 7.0 12.0 0.00 0.01 0.01 46 1014.2
20260904223504 69 182 2.0 8.0 0.00 0.01 0.01 47 1014.3
20260904223005 69 202 6.0 12.0 0.00 0.01 0.01 47 1014.3
20260904222505 69 212 7.0 13.0 0.00 0.01 0.01 48 1014.3
20260904222005 69 187 5.0 12.0 0.00 0.01 0.01 49 1014.1
20260904221505 69 161 4.0 9.0 0.00 0.01 0.01 48 1014.2
20260904220505 69 207 7.0 13.0 0.00 0.01 0.01 48 1014.1
20260904220005 69 229 8.0 17.0 0.00 0.01 0.01 47 1014.4
20260904215505 70 236 7.0 16.0 0.00 0.01 0.01 51 1014.4
20260904215005 70 189 5.0 13.0 0.00 0.01 0.01 51 1014.1
20260904214504 69 210 5.0 13.0 0.00 0.01 0.01 52 1014.1
20260904214005 69 221 7.0 13.0 0.00 0.01 0.01 53 1014.0
20260904213504 69 197 5.0 12.0 0.00 0.01 0.01 57 1014.1
20260904213004 68 184 7.0 20.0 0.00 0.01 0.01 57 1014.2
20260904212505 68 189 5.0 9.0 0.00 0.01 0.01 61 1014.2
20260904212005 67 202 6.0 15.0 0.00 0.01 0.01 63 1014.3
20260904211504 67 207 6.0 12.0 0.00 0.01 0.01 64 1014.3
20260904211005 66 212 6.0 12.0 0.00 0.01 0.01 64 1014.3
20260904210505 66 206 6.0 10.0 0.00 0.01 0.01 66 1014.3
20260904205505 65 201 6.0 12.0 0.00 0.01 0.01 67 1014.4
20260904204505 65 227 6.0 9.0 0.00 0.01 0.01 68 1014.3
20260904204004 64 220 7.0 14.0 0.00 0.01 0.01 70 1014.3
20260904203005 64 213 3.0 9.0 0.00 0.01 0.01 72 1014.4
20260904202505 64 168 5.0 9.0 0.00 0.01 0.01 75 1014.4
20260904202005 63 171 3.0 7.0 0.00 0.01 0.01 76 1014.3
20260904201505 63 219 5.0 10.0 0.00 0.01 0.01 76 1014.3
20260904201004 62 193 3.0 8.0 0.00 0.01 0.01 79 1014.3
20260904200505 62 210 5.0 7.0 0.00 0.01 0.01 80 1014.3
20260904200005 61 199 1.0 3.0 0.00 0.01 0.01 81 1014.4
20260904195504 61 199 3.0 7.0 0.00 0.01 0.01 82 1014.4
20260904195004 61 210 3.0 5.0 0.00 0.01 0.01 82 1014.6
20260904194505 61 191 2.0 6.0 0.00 0.01 0.01 85 1014.5
20260904194004 60 200 2.0 5.0 0.00 0.01 0.01 86 1014.6
20260904193504 60 210 3.0 5.0 0.00 0.01 0.01 86 1014.7
20260904193005 59 207 0.0 2.0 0.00 0.01 0.01 87 1014.7
20260904192004 58 207 0.0 3.0 0.00 0.01 0.01 90 1014.9
20260904191504 58 207 1.0 3.0 0.00 0.01 0.01 90 1014.7
20260904191004 58 207 1.0 3.0 0.00 0.01 0.01 91 1014.8
20260904190505 58 207 1.0 3.0 0.00 0.01 0.01 92 1014.9
20260904190004 57 207 0.0 2.0 0.00 0.01 0.01 92 1014.9
20260904185504 57 207 0.0 0.0 0.00 0.01 0.01 92 1015.0
20260904185004 57 207 1.0 3.0 0.00 0.01 0.01 92 1014.9
20260904184505 57 207 2.0 3.0 0.00 0.01 0.01 92 1014.8
20260904184005 57 207 1.0 3.0 0.00 0.01 0.01 93 1014.9
20260904183505 57 207 1.0 2.0 0.00 0.01 0.01 94 1014.8
20260904183004 56 207 0.0 2.0 0.00 0.01 0.01 94 1014.8
20260904181505 56 207 2.0 5.0 0.00 0.01 0.01 94 1014.7
20260904180505 56 207 2.0 3.0 0.01 0.01 0.01 94 1014.7
20260904180004 56 212 1.0 3.0 0.01 0.01 0.01 95 1015.1
20260904175504 55 212 1.0 3.0 0.01 0.01 0.01 94 1014.7
20260904175004 55 212 1.0 3.0 0.01 0.01 0.01 94 1014.8
20260904174505 55 212 0.0 2.0 0.01 0.01 0.01 95 1014.9
20260904173504 55 212 2.0 3.0 0.01 0.01 0.01 94 1014.7
20260904173004 55 212 0.0 0.0 0.01 0.01 0.01 94 1014.7
20260904172005 54 212 0.0 2.0 0.01 0.01 0.01 94 1014.4
20260904171504 55 212 0.0 2.0 0.01 0.01 0.01 94 1014.4
20260904171004 55 212 2.0 3.0 0.00 0.00 0.00 94 1014.2
20260904170505 55 212 1.0 3.0 0.00 0.00 0.00 95 1014.1
20260904170005 55 212 2.0 3.0 0.00 0.00 0.00 95 1014.3
20260904165505 55 212 1.0 3.0 0.00 0.00 0.00 95 1014.2
20260904165004 55 212 1.0 3.0 0.00 0.00 0.00 95 1014.2
20260904164505 55 212 2.0 3.0 0.00 0.00 0.00 95 1014.2
20260904164005 55 212 0.0 3.0 0.00 0.00 0.00 95 1014.2
20260904163505 55 212 2.0 3.0 0.00 0.00 0.00 95 1014.1
20260904163005 55 213 2.0 3.0 0.00 0.00 0.00 95 1014.0
20260904162504 55 213 1.0 3.0 0.00 0.00 0.00 94 1013.9
20260904162004 55 213 3.0 5.0 0.00 0.00 0.00 94 1013.8
20260904161005 55 234 2.0 3.0 0.00 0.00 0.00 95 1013.9
20260904160505 55 250 1.0 2.0 0.00 0.00 0.00 95 1014.0
20260904160005 54 250 1.0 3.0 0.00 0.00 0.00 95 1014.0
20260904155505 54 250 1.0 3.0 0.00 0.00 0.00 95 1013.9
20260904155004 54 250 1.0 2.0 0.00 0.00 0.00 94 1013.9
20260904154504 54 250 1.0 3.0 0.00 0.00 0.00 94 1013.8
20260904153504 54 250 2.0 3.0 0.00 0.00 0.00 94 1013.8
20260904152504 54 250 1.0 3.0 0.00 0.00 0.00 94 1013.8
20260904151504 54 250 1.0 3.0 0.00 0.00 0.00 94 1013.9
20260904151004 54 250 1.0 2.0 0.00 0.00 0.00 94 1013.7
20260904150504 54 250 1.0 3.0 0.00 0.00 0.00 94 1013.7
20260904150004 54 305 2.0 3.0 0.00 0.00 0.00 94 1013.6
20260904145504 54 307 0.0 2.0 0.00 0.00 0.00 94 1013.7
20260904145005 54 307 1.0 3.0 0.00 0.00 0.00 94 1013.4
20260904144504 54 307 2.0 3.0 0.00 0.00 0.00 94 1013.4
20260904144005 54 309 2.0 3.0 0.00 0.00 0.00 94 1013.5
20260904143504 54 275 1.0 3.0 0.00 0.00 0.00 94 1013.4
20260904143005 54 275 2.0 3.0 0.00 0.00 0.00 94 1013.6
20260904142505 54 275 2.0 6.0 0.00 0.00 0.00 94 1013.3
20260904142004 55 237 1.0 2.0 0.00 0.00 0.00 94 1013.3
20260904141504 55 237 2.0 3.0 0.00 0.00 0.00 94 1013.4
20260904141004 55 242 1.0 3.0 0.00 0.00 0.00 94 1013.1
20260904140504 55 242 1.0 3.0 0.00 0.00 0.00 94 1013.1
20260904140005 55 242 1.0 6.0 0.00 0.00 0.00 94 1013.1
20260904135504 55 243 1.0 5.0 0.00 0.00 0.00 94 1013.0
20260904135005 55 244 1.0 3.0 0.00 0.00 0.00 94 1013.0
20260904134504 55 244 0.0 3.0 0.00 0.00 0.00 94 1012.9
20260904134005 55 244 0.0 2.0 0.00 0.00 0.00 94 1013.0
20260904133504 55 244 0.0 2.0 0.00 0.00 0.00 93 1013.0
20260904133004 55 243 0.0 2.0 0.00 0.00 0.00 93 1012.8
20260904132504 55 243 1.0 3.0 0.00 0.00 0.00 93 1012.9
20260904132005 55 252 1.0 3.0 0.00 0.00 0.00 93 1012.8
20260904131505 55 276 1.0 3.0 0.00 0.00 0.00 93 1012.8
20260904131005 55 276 1.0 2.0 0.00 0.00 0.00 93 1012.7
20260904130505 55 276 2.0 3.0 0.00 0.00 0.00 93 1012.8
20260904130004 56 268 1.0 3.0 0.00 0.00 0.00 93 1012.7
20260904125504 56 270 1.0 6.0 0.00 0.00 0.00 92 1012.7
20260904124504 56 226 2.0 3.0 0.00 0.00 0.00 92 1012.5
20260904124005 57 226 0.0 1.0 0.00 0.00 0.00 91 1012.4
20260904123505 57 226 2.0 3.0 0.00 0.00 0.00 91 1012.5
20260904123005 57 226 1.0 2.0 0.00 0.00 0.00 91 1012.4
20260904121005 57 226 1.0 3.0 0.00 0.00 0.00 90 1012.4
20260904120504 57 226 1.0 3.0 0.00 0.00 0.00 90 1012.4
20260904120004 57 226 0.0 3.0 0.00 0.00 0.00 90 1012.3
20260904115004 57 355 0.0 0.0 0.00 0.00 0.00 90 1012.3
20260904114504 57 355 0.0 0.0 0.00 0.00 0.00 89 1012.3
20260904114004 57 355 0.0 0.0 0.00 0.00 0.00 89 1012.3
20260904113504 57 355 0.0 0.0 0.00 0.00 0.00 89 1012.2
20260904112004 57 355 0.0 0.0 0.00 0.00 0.00 90 1012.2
20260904111504 57 355 0.0 0.0 0.00 0.00 0.00 89 1012.1
20260904111004 57 355 0.0 0.0 0.00 0.00 0.00 90 1012.1
20260904110504 57 355 0.0 0.0 0.00 0.00 0.00 90 1012.1
20260904110004 57 355 0.0 0.0 0.00 0.00 0.00 89 1012.0
20260904105505 57 355 0.0 0.0 0.00 0.00 0.00 89 1012.0
20260904105004 57 355 0.0 1.0 0.00 0.00 0.00 89 1012.1
20260904104504 57 355 0.0 2.0 0.00 0.00 0.00 89 1012.1
20260904104004 57 355 1.0 2.0 0.00 0.00 0.00 89 1012.1
20260904103504 57 355 0.0 0.0 0.00 0.00 0.00 87 1012.1
20260904103004 58 355 0.0 1.0 0.00 0.00 0.00 87 1012.1
20260904102504 58 355 0.0 0.0 0.00 0.00 0.00 87 1012.0
20260904102004 58 355 0.0 0.0 0.00 0.00 0.00 87 1012.0
20260904101505 58 355 0.0 0.0 0.00 0.00 0.00 87 1012.0
20260904101004 58 355 0.0 0.0 0.00 0.00 0.00 88 1012.0
20260904100005 58 355 0.0 0.0 0.00 0.00 0.00 88 1012.0
20260904095504 58 355 0.0 1.0 0.00 0.00 0.00 88 1012.1
20260904095004 58 355 0.0 1.0 0.00 0.00 0.00 88 1012.1
20260904094504 58 355 0.0 0.0 0.00 0.00 0.00 88 1012.0
20260904094004 58 355 0.0 0.0 0.00 0.00 0.00 88 1012.0
20260904093504 58 355 0.0 1.0 0.00 0.00 0.00 88 1012.1
20260904092504 58 355 0.0 0.0 0.00 0.00 0.00 88 1012.2
20260904092005 58 355 0.0 0.0 0.00 0.00 0.00 88 1012.2
20260904091504 58 355 0.0 0.0 0.00 0.00 0.00 88 1012.2
20260904091004 58 355 0.0 1.0 0.00 0.00 0.00 88 1012.2
20260904090504 58 355 0.0 1.0 0.00 0.00 0.00 88 1012.2
20260904090004 58 355 0.0 1.0 0.00 0.00 0.00 87 1012.3
20260904085504 58 355 0.0 0.0 0.00 0.00 0.00 87 1012.4
20260904085004 58 355 0.0 0.0 0.00 0.00 0.00 88 1012.4
20260904084505 58 355 0.0 1.0 0.00 0.00 0.00 88 1012.4
20260904084005 58 355 0.0 0.0 0.00 0.00 0.00 88 1012.3
20260904083504 58 355 0.0 0.0 0.00 0.00 0.00 88 1012.5
20260904082508 58 355 0.0 0.0 0.00 0.00 0.00 88 1012.5
20260904082005 58 355 0.0 1.0 0.00 0.00 0.00 88 1012.5
20260904081504 58 355 0.0 0.0 0.00 0.00 0.00 88 1012.5
20260904081005 58 355 0.0 0.0 0.00 0.00 0.00 88 1012.6
20260904080504 58 355 0.0 0.0 0.00 0.00 0.00 88 1012.7
20260904080004 58 355 0.0 0.0 0.00 0.00 0.00 89 1012.4
20260904075503 58 355 0.0 0.0 0.00 0.00 0.00 89 1012.4
20260904074504 58 355 1.0 3.0 0.00 0.00 0.00 89 1012.5
20260904074004 58 355 0.0 0.0 0.00 0.00 0.00 89 1012.4
20260904073504 58 355 1.0 2.0 0.00 0.00 0.00 89 1012.5
20260904073008 58 355 1.0 2.0 0.00 0.00 0.00 89 1012.4
20260904072504 58 355 1.0 2.0 0.00 0.00 0.00 88 1012.4
20260904071504 58 355 0.0 0.0 0.00 0.00 0.00 88 1012.5
20260904070504 57 355 0.0 0.0 0.00 0.00 0.00 89 1012.3
20260904070004 57 355 1.0 3.0 0.00 0.00 0.00 88 1012.4
20260904065503 57 257 2.0 3.0 0.00 0.00 0.00 88 1012.3
20260904065004 58 257 2.0 3.0 0.00 0.00 0.00 87 1012.2
20260904064504 58 294 2.0 3.0 0.00 0.00 0.00 87 1012.3
20260904064005 58 326 1.0 2.0 0.00 0.00 0.00 86 1012.2
20260904063503 58 326 2.0 3.0 0.00 0.00 0.00 86 1012.2
20260904063004 58 326 0.0 1.0 0.00 0.00 0.00 85 1012.3
20260904062504 58 326 0.0 0.0 0.00 0.00 0.00 85 1012.2
20260904062004 58 326 0.0 0.0 0.00 0.00 0.00 85 1012.2
20260904061504 58 326 0.0 0.0 0.00 0.00 0.00 85 1012.3
20260904061004 59 326 0.0 0.0 0.00 0.00 0.00 85 1012.2
20260904060505 59 326 0.0 0.0 0.00 0.00 0.00 84 1012.2
20260904055504 59 326 0.0 2.0 0.00 0.00 0.00 84 1012.4
20260904054504 59 326 0.0 0.0 0.00 0.00 0.00 84 1012.5
20260904054004 59 326 0.0 0.0 0.00 0.00 0.00 84 1012.6
20260904053505 59 326 0.0 2.0 0.00 0.00 0.00 84 1012.7
20260904053005 59 326 0.0 3.0 0.00 0.00 0.00 84 1012.7
20260904052504 59 326 1.0 3.0 0.00 0.00 0.00 84 1012.9
20260904052004 59 326 1.0 3.0 0.00 0.00 0.00 84 1012.9
20260904051504 59 326 1.0 2.0 0.00 0.00 0.00 84 1012.9
20260904050504 60 326 1.0 3.0 0.00 0.00 0.00 83 1013.0
20260904050004 60 326 1.0 3.0 0.00 0.00 0.00 84 1013.0
20260904045504 60 326 0.0 2.0 0.00 0.00 0.00 84 1013.0
20260904045004 60 326 1.0 3.0 0.00 0.00 0.00 84 1013.1
20260904044504 60 326 1.0 2.0 0.00 0.00 0.00 83 1013.1
20260904044004 60 326 2.0 3.0 0.00 0.00 0.00 83 1013.0
20260904043504 60 323 1.0 3.0 0.00 0.00 0.00 83 1013.0
20260904043005 60 330 0.0 2.0 0.00 0.00 0.00 83 1013.0
20260904042504 60 330 1.0 2.0 0.00 0.00 0.00 83 1013.0
20260904042005 60 5 1.0 3.0 0.00 0.00 0.00 83 1012.9
20260904041504 60 296 1.0 3.0 0.00 0.00 0.00 83 1012.8
20260904041004 60 299 2.0 3.0 0.00 0.00 0.00 83 1012.8
20260904040503 60 292 1.0 3.0 0.00 0.00 0.00 83 1012.8
20260904035504 60 264 2.0 3.0 0.00 0.00 0.00 82 1012.5
20260904033504 61 293 2.0 6.0 0.00 0.00 0.00 80 1012.3
20260904033004 61 267 1.0 6.0 0.00 0.00 0.00 80 1012.3
20260904032003 62 265 1.0 3.0 0.00 0.00 0.00 78 1012.2
20260904031504 62 265 2.0 3.0 0.00 0.00 0.00 77 1012.1
20260904031003 62 265 2.0 3.0 0.00 0.00 0.00 76 1012.0
20260904030504 62 265 1.0 2.0 0.00 0.00 0.00 76 1012.0
20260904025004 62 265 1.0 3.0 0.00 0.00 0.00 75 1012.2
20260904024504 63 265 1.0 3.0 0.00 0.00 0.00 75 1012.2
20260904024004 63 265 2.0 3.0 0.00 0.00 0.00 75 1012.4
20260904023504 63 265 1.0 3.0 0.00 0.00 0.00 75 1012.4
20260904023004 63 265 1.0 3.0 0.00 0.00 0.00 74 1012.4
20260904022503 63 265 1.0 3.0 0.00 0.00 0.00 74 1012.4
20260904021504 63 265 2.0 3.0 0.00 0.00 0.00 73 1012.4
20260904021004 64 267 3.0 7.0 0.00 0.00 0.00 73 1012.3
20260904020505 64 278 2.0 3.0 0.00 0.00 0.00 72 1012.3
20260904020005 64 313 1.0 5.0 0.00 0.00 0.00 71 1012.4
20260904015505 65 41 1.0 5.0 0.00 0.00 0.00 70 1012.4
20260904015005 65 267 1.0 3.0 0.00 0.00 0.00 70 1012.4
20260904014505 65 267 2.0 7.0 0.00 0.00 0.00 69 1012.4
20260904013505 65 272 3.0 8.0 0.00 0.00 0.00 67 1012.4
20260904013005 66 297 3.0 7.0 0.00 0.00 0.00 65 1012.5
20260904012505 66 297 2.0 7.0 0.00 0.00 0.00 64 1012.5
20260904012005 66 269 1.0 6.0 0.00 0.00 0.00 62 1012.6
20260904011505 67 243 2.0 6.0 0.00 0.00 0.00 62 1012.6
20260904011005 67 260 2.0 6.0 0.00 0.00 0.00 61 1012.6
20260904005505 69 317 2.0 6.0 0.00 0.00 0.00 53 1012.4
20260904005005 70 268 3.0 6.0 0.00 0.00 0.00 51 1012.5
20260904004505 70 304 2.0 12.0 0.00 0.00 0.00 50 1012.5
20260904004005 71 192 5.0 9.0 0.00 0.00 0.00 49 1012.5
20260904003505 71 302 5.0 9.0 0.00 0.00 0.00 49 1012.4
20260904003005 70 197 2.0 7.0 0.00 0.00 0.00 49 1012.6
20260904002505 70 306 2.0 7.0 0.00 0.00 0.00 49 1012.5
20260904002004 70 272 4.0 8.0 0.00 0.00 0.00 48 1012.4
20260904001005 71 249 1.0 3.0 0.00 0.00 0.00 46 1012.4
20260904000505 71 245 2.0 5.0 0.00 0.00 0.00 46 1012.6
20260904000005 71 209 5.0 9.0 0.00 0.00 0.00 46 1012.6
20260903235005 72 198 3.0 7.0 0.00 0.00 0.00 44 1012.7
20260903234505 72 243 6.0 9.0 0.00 0.00 0.00 44 1012.6
20260903234005 72 239 3.0 7.0 0.00 0.00 0.00 43 1012.7
20260903233505 72 306 2.0 7.0 0.00 0.00 0.00 44 1012.9
20260903233005 71 205 4.0 6.0 0.00 0.00 0.00 45 1013.1
20260903232505 71 200 3.0 10.0 0.00 0.00 0.00 46 1013.1
20260903232005 71 265 1.0 6.0 0.00 0.00 0.00 46 1013.2